Weather History for Poteau, OK

Change the Weather History Date:

Friday, April 5, 2013

  Actual Average (KFSM) Record (KFSM)
Temperature  
Mean Temperature 53 °F 59 °F  
Max Temperature 71 °F 71 °F 94 °F (1893)
Min Temperature 35 °F 46 °F 27 °F (1987)
Degree Days  
Heating Degree Days 12 7  
Month to date heating degree days 39  
Since 1 July heating degree days 3098  
Cooling Degree Days 0 1  
Month to date cooling degree days 5  
Year to date cooling degree days 17  
Growing Degree Days 3 (Base 50)    
Moisture  
Dew Point 43 °F    
Average Humidity 71    
Maximum Humidity 100    
Minimum Humidity 29    
Precipitation  
Precipitation 0.00 in 0.13 in 2.31 in (1928)
Month to date precipitation 0.63  
Year to date precipitation 10.05  
Sea Level Pressure  
Sea Level Pressure 30.14 in    
Wind  
Wind Speed 1 mph (SSW)    
Max Wind Speed 6 mph    
Max Gust Speed -    
Visibility 9 miles    
Events Fog    
T = Trace of Precipitation, MM = Missing Value Source: NWS Daily Summary

Daily Weather History Graph

Daily Weather History Graph

Search for Another Location

Airport:

Trip Planner

Search our weather history database for the weather conditions in past years. The results will help you decide how hot, cold, wet, or windy it might be!

Date:

Astronomy

Apr. 05, 2013 Rise Set
Actual Time 6:59 AM CDT 7:43 PM CDT
Civil Twilight 6:33 AM CDT 8:08 PM CDT
Nautical Twilight 6:03 AM CDT 8:39 PM CDT
Astronomical Twilight 5:32 AM CDT 9:10 PM CDT
Moon 3:56 AM CDT (4/5) 3:17 PM CDT (4/5)
Length of Visible Light 13h 35m
Length of Day
12h 43m
Waning Crescent, 23% of the Moon is Illuminated
Apr 5
Waning Crescent
Apr 10
New
Apr 18
First Quarter
Apr 25
Full
May 2
Last Quarter

Hourly Weather History & Observations

Time (CDT) Temp. Windchill Dew Point Humidity Pressure Visibility Wind Dir Wind Speed Gust Speed Precip Events Conditions
12:15 AM 42.8 °F - 42.8 °F 100% 30.15 in 10.0 mi Calm Calm - N/A   Scattered Clouds
12:35 AM 44.6 °F - 42.8 °F 93% 30.15 in 10.0 mi Calm Calm - N/A   Clear
12:55 AM 42.8 °F - 42.8 °F 100% 30.15 in 10.0 mi Calm Calm - N/A   Clear
1:15 AM 42.8 °F - 41.0 °F 93% 30.16 in 10.0 mi Calm Calm - N/A   Clear
1:35 AM 42.8 °F - 41.0 °F 93% 30.16 in 10.0 mi Calm Calm - N/A   Clear
1:55 AM 42.8 °F - 42.8 °F 100% 30.16 in 7.0 mi Calm Calm - N/A   Clear
2:15 AM 42.8 °F - 41.0 °F 93% 30.16 in 7.0 mi Calm Calm - N/A   Clear
2:35 AM 41.0 °F - 41.0 °F 100% 30.16 in 10.0 mi Calm Calm - N/A   Clear
2:55 AM 41.0 °F - 41.0 °F 100% 30.16 in 10.0 mi Calm Calm - N/A   Clear
3:15 AM 41.0 °F 39.0 °F 41.0 °F 100% 30.16 in 10.0 mi South 3.5 mph - N/A   Clear
3:35 AM 41.0 °F - 41.0 °F 100% 30.16 in 10.0 mi Calm Calm - N/A   Clear
3:55 AM 41.0 °F - 41.0 °F 100% 30.16 in 10.0 mi Calm Calm - N/A   Clear
4:15 AM 41.0 °F - 41.0 °F 100% 30.16 in 10.0 mi Calm Calm - N/A   Clear
4:35 AM 37.4 °F - 37.4 °F 100% 30.17 in 5.0 mi Calm Calm - N/A   Clear
4:55 AM 39.2 °F - 39.2 °F 100% 30.17 in 5.0 mi Calm Calm - N/A   Clear
5:15 AM 37.4 °F - 37.4 °F 100% 30.18 in 2.0 mi Calm Calm - N/A   Mist
5:35 AM 37.4 °F - 37.4 °F 100% 30.18 in 7.0 mi Calm Calm - N/A   Clear
5:55 AM 37.4 °F - 37.4 °F 100% 30.19 in 1.8 mi Calm Calm - N/A   Scattered Clouds
6:15 AM 37.4 °F - 37.4 °F 100% 30.19 in 10.0 mi Calm Calm - N/A   Scattered Clouds
6:35 AM 37.4 °F - 37.4 °F 100% 30.21 in 7.0 mi Calm Calm - N/A   Clear
6:55 AM 37.4 °F - 37.4 °F 100% 30.21 in 7.0 mi Calm Calm - N/A   Clear
7:15 AM 35.6 °F - 35.6 °F 100% 30.21 in 0.5 mi Calm Calm - N/A Fog Fog
7:35 AM 35.6 °F - 35.6 °F 100% 30.21 in 0.2 mi Calm Calm - N/A Fog Fog
7:55 AM 37.4 °F - 37.4 °F 100% 30.22 in 1.8 mi Calm Calm - N/A   Mostly Cloudy
8:15 AM 41.0 °F - 41.0 °F 100% 30.22 in 5.0 mi Calm Calm - N/A   Clear
8:35 AM 42.8 °F - 42.8 °F 100% 30.22 in 10.0 mi Calm Calm - N/A   Clear
8:55 AM 44.6 °F - 44.6 °F 100% 30.23 in 10.0 mi Calm Calm - N/A   Clear
9:15 AM 48.2 °F - 44.6 °F 87% 30.23 in 10.0 mi Calm Calm - N/A   Clear
9:35 AM 51.8 °F - 46.4 °F 82% 30.23 in 10.0 mi Calm Calm - N/A   Clear
9:55 AM 51.8 °F - 46.4 °F 82% 30.23 in 10.0 mi SW 4.6 mph - N/A   Clear
10:15 AM 53.6 °F - 46.4 °F 77% 30.23 in 10.0 mi SSW 3.5 mph - N/A   Clear
10:35 AM 53.6 °F - 46.4 °F 77% 30.24 in 10.0 mi SSW 3.5 mph - N/A   Clear
10:55 AM 55.4 °F - 46.4 °F 72% 30.24 in 10.0 mi SW 3.5 mph - N/A   Clear
11:15 AM 59.0 °F - 46.4 °F 63% 30.24 in 10.0 mi Calm Calm - N/A   Clear
11:35 AM 59.0 °F - 46.4 °F 63% 30.23 in 10.0 mi Calm Calm - N/A   Clear
11:55 AM 60.8 °F - 42.8 °F 52% 30.22 in 10.0 mi Calm Calm - N/A   Clear
12:15 PM 60.8 °F - 37.4 °F 42% 30.22 in 10.0 mi Calm Calm - N/A   Clear
12:35 PM 60.8 °F - 41.0 °F 48% 30.21 in 10.0 mi Calm Calm - N/A   Clear
12:55 PM 62.6 °F - 41.0 °F 45% 30.21 in 10.0 mi SSW 3.5 mph - N/A   Clear
1:15 PM 62.6 °F - 41.0 °F 45% 30.19 in 10.0 mi SSE 3.5 mph - N/A   Clear
1:35 PM 64.4 °F - 41.0 °F 42% 30.18 in 10.0 mi SW 5.8 mph - N/A   Clear
1:55 PM 64.4 °F - 42.8 °F 45% 30.16 in 10.0 mi Calm Calm - N/A   Clear
2:15 PM 66.2 °F - 39.2 °F 37% 30.15 in 10.0 mi Calm Calm - N/A   Clear
2:35 PM 68.0 °F - 41.0 °F 37% 30.15 in 10.0 mi Calm Calm - N/A   Clear
2:55 PM 68.0 °F - 41.0 °F 37% 30.13 in 10.0 mi SSW 3.5 mph - N/A   Clear
3:15 PM 69.8 °F - 42.8 °F 38% 30.12 in 10.0 mi Calm Calm - N/A   Clear
3:35 PM 71.6 °F - 41.0 °F 33% 30.11 in 10.0 mi Calm Calm - N/A   Clear
3:55 PM 71.6 °F - 41.0 °F 33% 30.10 in 10.0 mi Calm Calm - N/A   Clear
4:15 PM 71.6 °F - 37.4 °F 29% 30.09 in 10.0 mi Calm Calm - N/A   Clear
4:35 PM 71.6 °F - 37.4 °F 29% 30.08 in 10.0 mi SW 3.5 mph - N/A   Clear
4:55 PM 71.6 °F - 39.2 °F 31% 30.07 in 10.0 mi Calm Calm - N/A   Clear
5:15 PM 71.6 °F - 41.0 °F 33% 30.06 in 10.0 mi SW 3.5 mph - N/A   Clear
5:35 PM 71.6 °F - 41.0 °F 33% 30.06 in 10.0 mi Calm Calm - N/A   Clear
5:55 PM 71.6 °F - 41.0 °F 33% 30.05 in 10.0 mi East 3.5 mph - N/A   Clear
6:15 PM 71.6 °F - 41.0 °F 33% 30.05 in 10.0 mi Calm Calm - N/A   Clear
6:35 PM 71.6 °F - 41.0 °F 33% 30.05 in 10.0 mi Calm Calm - N/A   Clear
6:55 PM 71.6 °F - 42.8 °F 35% 30.05 in 10.0 mi Calm Calm - N/A   Clear
7:15 PM 71.6 °F - 42.8 °F 35% 30.05 in 10.0 mi Calm Calm - N/A   Clear
7:35 PM 64.4 °F - 50.0 °F 59% 30.05 in 10.0 mi Calm Calm - N/A   Clear
7:55 PM 62.6 °F - 50.0 °F 63% 30.05 in 10.0 mi Calm Calm - N/A   Clear
8:15 PM 60.8 °F - 51.8 °F 72% 30.04 in 10.0 mi Calm Calm - N/A   Clear
8:35 PM 59.0 °F - 51.8 °F 77% 30.04 in 10.0 mi Calm Calm - N/A   Clear
8:55 PM 59.0 °F - 51.8 °F 77% 30.04 in 10.0 mi Calm Calm - N/A   Clear
9:15 PM 59.0 °F - 51.8 °F 77% 30.05 in 10.0 mi Calm Calm - N/A   Clear
9:35 PM 59.0 °F - 48.2 °F 67% 30.05 in 10.0 mi South 4.6 mph - N/A   Clear
9:55 PM 57.2 °F - 46.4 °F 67% 30.05 in 10.0 mi SSW 3.5 mph - N/A   Clear
10:15 PM 57.2 °F - 46.4 °F 67% 30.06 in 10.0 mi SW 4.6 mph - N/A   Clear
10:35 PM 59.0 °F - 46.4 °F 63% 30.05 in 10.0 mi SSW 4.6 mph - N/A   Clear
10:55 PM 57.2 °F - 46.4 °F 67% 30.05 in 10.0 mi SSW 3.5 mph - N/A   Clear
11:15 PM 55.4 °F - 46.4 °F 72% 30.05 in 10.0 mi WSW 3.5 mph - N/A   Clear
11:35 PM 55.4 °F - 46.4 °F 72% 30.04 in 10.0 mi Calm Calm - N/A   Clear
11:55 PM 53.6 °F - 48.2 °F 82% 30.03 in 10.0 mi Calm Calm - N/A   Clear